Location: Amherst
(42.5000°N, 72.5000°W)
Time: 01:00:08
(UTC-04:00)

ISS - Pass Details

Date: 21 May 2018
Orbit: 402 x 407 km, 51.6° (Epoch: 21 May)

Event Time Altitude Azimuth Distance (km) Brightness Sun altitude
Rises 00:56:04 0° 294° (WNW) 2,318 0.3 -27.3°
Reaches altitude 10° 00:58:42 10° 317° (NW) 1,458 -0.5 -27.3°
Maximum altitude 01:00:52 16° 359° (N) 1,139 -0.7 -27.2°
Drops below altitude 10° 01:03:01 10° 40° (NE) 1,458 -0.4 -27.2°
Sets 01:05:40 0° 63° (ENE) 2,317 0.4 -27.2°
